088  
FPUS82 KCHS 260327  
OPUCHS  
 
TEST   
..KCHS/KSAV GATEWAY OBSERVATIONS
 
TEST  
NATIONAL WEATHER SERVICE CHARLESTON SC  
1100 PM EDT SUN OCT 25 2020  
 
NOTE: "FAIR" INDICATES FEW OR NO CLOUDS BELOW 12,000 FEET WITH NO  
SIGNIFICANT WEATHER AND/OR OBSTRUCTIONS TO VISIBILITY.  
 
SCZ050-WAZ558-NCZ071-TXZ119-213-PAZ071-DCZ001-FLZ074-172-MI076-  
NYZ176-178-MAZ016-IL014-TNZ027-NJZ106-GAZ044-MD014-260400-  
   
..GATEWAY OBSERVATIONS FOR CHARLESTON INTERNATIONAL
 
 
 
CITY SKY/WX TMP DP RH WIND PRES REMARKS  
CHAS AIRPORT PTCLDY 71 70 96 E7 30.00R  
SEATTLE CLEAR 42 27 55 N12 30.53R  
CHARLOTTE CLOUDY 55 53 93 N12 30.10S  
DALLAS DFW DRIZZLE 55 55 100 NE12 29.98S  
DALLAS LOVE CLOUDY 57 54 89 E8 29.99F  
PHILLADELPHIA CLOUDY 48 44 86 NE9 30.22S  
WASH NATIONAL DRIZZLE 49 47 93 N8 30.21F  
BALTIMORE CLOUDY 48 44 86 N7 30.21R  
MIAMI RAIN 77 75 93 S9 29.96R FOG  
DETROIT CLOUDY 45 33 63 NE7 30.12S  
NEWARK LGT RAIN 47 45 93 N8 30.25S FOG  
LAGUARDIA CLOUDY 52 47 83 NE8 30.25S  
J F K CLOUDY 51 48 89 NE9 30.25F  
BOSTON LOGAN MOCLDY 47 35 63 E13 30.36S  
FT. LAUDERDALE MOCLDY 79 79 100 S7 29.94R  
CHICAGO O'HARE CLOUDY 42 36 79 N17 30.15S  
CHICAGO MIDWAY CLOUDY 46 34 62 NE10 30.14S  
HOUSTON BUSH CLOUDY 72 68 87 E12 29.92R  
HOUSTON HOBBY MOCLDY 74 70 87 SE10 29.91R  
NASHVILLE CLOUDY 59 54 83 NW6 30.05R  
ATLANTA MOCLDY 69 65 86 E6 30.02R  
LONDON HEATHRW N/A 45 43 93 SW8 29.41S  
 

 
 
GAZ044-118-TXZ119-213-NCZ071-DCZ001-MDZ014-506-PAZ021-071-NJZ106-  
NYZ176-178-MAZ106-OHZ011-021-055-MIZ076-KYZ091-ILZ014-INZ047-  
MNZ060-ONZ431-260400-  
   
..GATEWAY OBSERVATIONS FOR SAVANNAH INTERNATIONAL
 
 
 
CITY SKY/WX TMP DP RH WIND PRES REMARKS  
SAVANNAH ARPT PTCLDY 73 69 87 CALM 29.99R  
ATLANTA MOCLDY 69 65 86 E6 30.02R  
CHARLOTTE CLOUDY 55 53 93 N12 30.10S  
DALLAS DFW DRIZZLE 55 55 100 NE12 29.98S  
HOUSTON BUSH CLOUDY 72 68 87 E12 29.92R  
WASH NATIONAL DRIZZLE 49 47 93 N8 30.21F  
WASH DULLES CLOUDY 46 45 96 NE7 30.20F FOG  
BALTIMORE CLOUDY 48 44 86 N7 30.21R  
PHILADELPHIA CLOUDY 48 44 86 NE9 30.22S  
NEWARK LGT RAIN 47 45 93 N8 30.25S FOG  
LAGUARDIA CLOUDY 52 47 83 NE8 30.25S  
J F K CLOUDY 51 48 89 NE9 30.25F  
BOSTON MOCLDY 47 35 63 E13 30.36S  
PITTSBURG CLOUDY 45 42 89 E6 30.07R  
AKRON CLOUDY 47 42 83 E6 30.08R  
CLEVELAND CLOUDY 48 35 60 E8 30.05F  
CINCINNATI CLOUDY 50 46 86 E3 30.05R  
COLUMBUS CLOUDY 47 42 82 NE7 30.06S  
DETROIT CLOUDY 45 33 63 NE7 30.12S  
CHICAGO O'HARE CLOUDY 42 36 79 N17 30.15S  
MINNEAPOLIS MOCLDY 27 22 81 NW5 30.35S WCI 22  
INDIANAPOLIS CLOUDY 47 43 86 E6 30.07S  
TORONTO CANADA MOCLDY 41 27 56 NE10 30.18F  
 

 
 
 
CLICK HERE TO GO TO PREVIOUS BULLETINS.

The Nexlab SC Page
The Nexlab GA Page Main Text Page